User: anonymous   Login
Location: Unspecified
(0.0000°N, 0.0000°E)
Time: 21:17:25
(UTC+02:00)
Language:

ARIANE 5 R/B - Orbit

View from above orbital plane
View from above orbital plane
View from above satellite
View from above satellite

Ground track
Ground track

The orbit data is extracted from the following two-line orbital elements,

1 27387U 02009B   17177.89722212 -.00000017 +00000-0 +89557-5 0  9992
2 27387 098.4644 127.1876 0033548 109.4965 250.9850 14.35930665802891
Epoch (UTC): 26 June 2017 21:31:59
Eccentricity: 0.0033548
inclination: 98.4644°
perigee height: 748 km
apogee height: 796 km
right ascension of ascending node: 127.1876°
argument of perigee: 109.4965°
revolutions per day: 14.35930665
mean anomaly at epoch: 250.9850°
orbit number at epoch: 80289

The dashed part of the orbit path shows where the satellite is in the earth's shadow,  

DLR